Regional Weather Roundup
Issued by NWS

Home | Current Version | Previous Version | Text Only | Print | Product List | Glossary On
Versions: 1 2 3 4 5 6 7 8 9 10 11 12 13 14 15 16 17 18 19 20 21 22 23 24 25 26 27 28 29 30 31 32 33 34 35 36 37 38 39 40 41 42 43 44 45 46 47 48 49 50
000
ASUS43 KTOP 232208
RWRKS

WEATHER ROUNDUP FOR KANSAS
NATIONAL WEATHER SERVICE GOODLAND KS
500 PM CDT MON APR 23 2018

NOTE:  "FAIR" INDICATES FEW OR NO CLOUDS BELOW 12,000 FEET WITH NO
SIGNIFICANT WEATHER AND/OR OBSTRUCTIONS TO VISIBILITY.

KSZ001>006-013>018-027>032-041>047-232300-
NORTHWEST KANSAS

CITY           SKY/WX    TMP DP  RH WIND       PRES   REMARKS
GOODLAND       SUNNY     67  39  35 S15G26    30.03F
HAYS           MOSUNNY   69  42  37 SE7       30.06F
HILL CITY      PTSUNNY   72  41  32 VRB5      30.05F
RUSSELL        SUNNY     71  40  32 VRB7      30.05F
$$

KSZ061>065-074>080-084>089-232300-
SOUTHWEST KANSAS

CITY           SKY/WX    TMP DP  RH WIND       PRES   REMARKS
DODGE CITY     SUNNY     69  40  34 MISG      30.06F
ELKHART        SUNNY     72  47  40 SE12G18   30.04F
GARDEN CITY    SUNNY     68  40  35 SE7G21    30.05F
GREAT BEND     MOSUNNY   69  45  41 SW3       30.07F
LIBERAL        SUNNY     71  41  33 S9        30.05F
PRATT          MOSUNNY   67  40  36 CALM      30.06F
$$

KSZ066>073-081>083-090>101-232300-
SOUTHEAST KANSAS

CITY           SKY/WX    TMP DP  RH WIND       PRES   REMARKS
CHANUTE        MOSUNNY   75  45  34 NE10      30.01F
COFFEYVILLE    PTSUNNY   73  49  42 N10       29.99F
HUTCHINSON     SUNNY     73  42  32 N7        30.04F
MEDICINE LODGE   N/A     70  43  37 CALM      30.04F
NEWTON         SUNNY     70  42  36 N8        30.05F
PARSONS        MOSUNNY   73  49  42 N12       30.01F
WICHITA INTL   MOSUNNY   71  43  36 E5        30.03F
WICHITA JABRA  SUNNY     72  41  32 NE5       30.03F
WICHITA MCCONL SUNNY     71  41  33 NE5       30.03F
WINFIELD       PTSUNNY   71  48  43 N12       30.03F
$$

KSZ007>012-019>026-033>040-048>060-102>105-232300-
NORTHEAST KANSAS

CITY           SKY/WX    TMP DP  RH WIND       PRES   REMARKS
CONCORDIA      SUNNY     73  32  22 NW7       30.05F
EMPORIA        SUNNY     73  40  30 E7        30.02F
LAWRENCE       SUNNY     75  31  19 VRB3      30.01F
MANHATTAN      SUNNY     75  35  23 NE8       30.03F
MARYSVILLE     SUNNY     73  32  21 SE7       30.05F
OLATHE IND     SUNNY     75  33  21 N13       30.02F
OLATHE EXE     SUNNY     74  33  22 NE8G21    30.01F
SALINA         SUNNY     74  38  27 VRB6      30.05F
TOPEKA BILLARD SUNNY     76  33  21 NE5       30.01F
TOPEKA FORBES  SUNNY     77  33  20 NE9       30.02F
$$



USA.gov is the U.S. government's official web portal to all federal, state and local government web resources and services.